Wind_Speed
35 35 35 35 34 35 35 35 34 34 34 34 34 34 33 33 32 31 30 30 30 29 29 28 27 27 27 26 26 26 26 26 25 24 24 24 23 23 23 23 22 21 21
38 37 37 37 37 36 37 37 37 36 36 36 36 35 35 35 34 33 32 32 32 31 31 31 30 29 28 28 29 29 29 29 28 27 26 26 26 25 25 25 24 24 23
41 40 39 40 39 39 38 39 39 39 38 38 38 38 37 37 36 36 35 34 34 34 34 33 33 32 31 31 31 31 31 31 31 30 29 29 28 27 27 26 26 25 25
43 43 43 42 42 42 41 41 41 42 41 40 40 40 40 39 38 38 37 37 36 36 36 36 35 35 34 33 33 33 33 33 32 32 32 32 31 30 29 29 28 28 27
45 45 45 45 45 44 43 43 43 43 43 43 42 42 42 41 41 40 40 40 39 38 38 38 37 37 36 36 35 34 34 34 34 34 34 34 33 33 32 31 31 31 30
45 46 45 45 46 46 46 45 45 45 45 45 44 43 43 43 43 42 42 42 42 41 40 40 40 39 39 38 38 37 36 36 36 36 36 36 36 35 35 34 33 33 33
47 47 47 47 47 47 46 46 46 47 47 46 46 45 44 44 44 44 43 43 44 43 43 42 41 41 41 40 39 39 39 39 38 38 38 38 38 37 37 37 36 36 36
48 48 48 48 48 48 48 48 47 47 48 48 48 48 47 47 46 45 45 46 45 45 45 46 45 43 43 43 42 42 41 41 41 40 40 40 40 40 39 38 38 38 38
49 49 49 49 49 49 49 49 49 48 48 49 50 50 50 49 49 48 48 47 47 47 47 47 47 46 45 45 45 44 43 43 43 43 42 42 42 42 42 41 41 41 41
50 50 51 51 51 51 50 51 51 51 51 51 52 52 52 51 52 52 51 50 50 50 49 49 49 48 48 48 47 47 46 46 45 45 45 44 44 44 44 44 44 43 43
52 52 52 52 53 52 52 52 53 52 52 52 52 52 52 52 53 53 52 52 52 52 51 51 51 50 49 49 49 49 49 49 48 48 48 47 47 47 47 47 47 46 47
53 53 53 54 54 54 54 54 55 54 54 54 53 53 53 52 53 54 53 53 53 53 53 53 53 51 51 50 51 51 51 51 51 51 50 50 50 50 50 49 49 49 49
55 54 55 55 55 55 56 57 57 56 56 56 55 55 55 54 54 54 54 54 54 53 53 54 53 53 52 52 52 53 53 53 53 53 53 53 53 53 53 52 52 52 52
56 55 56 56 56 56 57 57 57 58 58 57 57 57 57 56 55 56 56 56 55 54 54 54 55 55 54 54 54 54 55 55 55 55 55 55 56 55 55 55 55 55 54
57 57 57 56 57 57 58 58 59 59 58 58 59 59 59 58 57 57 57 57 57 56 55 55 56 56 55 55 56 56 57 56 56 56 56 57 57 57 57 57 57 58 57
57 57 57 57 57 57 57 58 59 59 59 59 60 60 60 60 59 58 58 59 59 58 57 57 57 57 57 58 58 58 58 58 57 56 57 57 58 59 59 59 59 59 59
56 57 58 58 58 58 58 59 59 59 60 60 61 61 61 61 60 59 59 60 60 60 59 58 58 58 58 59 59 59 60 59 58 58 58 57 58 58 59 59 59 60 60
55 56 57 57 57 57 59 59 59 60 61 61 61 62 62 62 61 60 60 61 61 61 61 60 59 59 58 59 60 61 61 60 60 59 58 58 58 59 59 59 59 60 61
52 53 54 55 56 57 58 59 59 60 61 61 61 62 62 63 62 61 60 60 61 62 62 61 60 59 59 59 60 61 61 61 60 60 60 59 59 59 59 59 60 61 62
51 51 52 54 56 58 58 58 58 59 59 60 61 61 62 62 63 62 61 61 61 61 62 62 62 61 60 59 60 59 60 60 60 60 60 60 60 59 59 60 61 61 61
50 50 50 52 54 55 56 56 56 57 57 58 59 60 61 62 63 62 62 61 61 61 62 62 63 62 61 60 59 59 59 59 59 60 60 60 60 60 59 60 60 61 60
51 52 52 50 50 51 53 54 55 56 56 56 57 58 60 61 62 62 61 61 61 61 61 62 62 62 60 59 59 59 58 59 59 60 60 60 59 59 59 59 59 59 59
52 52 52 52 52 51 52 53 53 54 55 55 56 57 58 60 61 61 60 59 59 60 60 61 61 60 60 59 58 58 58 58 58 58 58 58 58 58 58 58 58 58 58
50 51 52 52 51 51 51 52 53 53 53 53 54 54 55 56 57 58 57 56 57 57 58 59 59 59 59 59 58 58 58 58 57 57 58 58 57 57 57 57 57 58 58
46 47 49 49 49 49 50 51 51 51 51 51 51 51 51 52 53 54 55 55 55 55 56 57 57 57 58 58 58 58 58 58 57 57 57 57 57 57 57 57 57 58 59
43 44 45 46 46 47 47 48 49 49 50 50 49 49 49 50 51 52 53 54 53 53 54 54 55 55 56 57 57 57 57 57 56 55 56 56 56 56 56 57 57 58 59
Wind_Direction
253 254 254 254 253 252 252 252 252 252 251 250 250 250 250 250 249 249 250 250 250 249 249 251 253 255 256 257 258 259 258 258 258 259 259 258 259 261 264 264 266 266 267
254 254 254 253 254 253 252 251 251 251 251 251 250 249 250 250 250 250 249 249 250 252 252 251 253 255 257 258 259 260 259 258 258 258 259 259 259 260 262 264 264 264 265
255 254 254 254 255 255 253 251 250 250 250 251 250 250 250 250 250 250 250 249 249 251 253 253 253 254 255 257 258 259 260 259 258 257 258 259 259 260 260 261 262 263 264
255 255 255 255 255 255 254 253 251 250 250 250 250 250 250 250 251 251 251 250 250 251 253 254 255 256 256 257 258 259 259 259 258 257 258 258 259 260 260 260 261 261 263
256 256 256 256 255 254 254 253 252 250 250 251 251 251 251 251 251 251 252 252 252 253 254 255 256 256 257 257 258 259 259 259 259 258 258 258 259 259 259 260 261 261 262
257 256 256 256 256 255 254 253 252 251 251 251 250 251 251 251 251 251 252 253 253 254 255 256 256 255 257 258 258 259 258 258 259 260 259 259 259 259 260 260 260 261 262
257 257 257 256 256 256 255 253 252 252 251 250 250 250 251 251 251 251 252 253 254 255 256 257 257 256 257 257 258 258 258 258 260 260 260 259 259 260 260 260 260 261 262
257 256 257 257 257 256 256 254 253 252 251 250 250 250 251 251 251 252 253 254 255 255 256 257 258 257 257 257 257 257 258 258 259 260 260 259 259 259 259 260 261 261 262
258 257 256 256 257 257 256 255 254 253 252 251 250 251 251 251 251 251 252 253 254 255 257 258 258 258 258 258 257 258 259 259 259 260 260 259 259 259 259 260 261 261 262
258 257 256 256 257 257 257 257 256 255 254 253 252 251 252 252 252 252 252 253 254 255 256 257 258 258 259 259 257 257 258 259 260 260 260 259 259 259 259 259 260 260 262
259 258 257 257 257 257 257 258 257 256 255 254 253 253 252 252 252 253 253 254 255 256 256 257 258 258 259 259 258 257 258 259 259 260 260 260 259 259 259 259 259 260 261
259 259 259 258 258 257 257 257 257 257 256 255 254 254 253 253 253 254 254 254 255 256 257 258 259 258 258 258 259 258 258 259 260 260 260 260 260 259 260 259 259 260 259
259 259 259 259 259 258 257 257 257 257 257 256 255 254 254 254 255 254 254 255 256 256 257 258 259 259 258 258 259 259 259 259 259 260 260 260 259 260 260 259 259 259 259
258 258 259 260 260 259 258 257 257 258 258 256 255 254 254 254 255 255 255 255 256 256 257 257 258 259 259 259 259 261 260 260 260 260 260 260 259 260 260 259 259 259 259
258 258 259 260 260 260 259 258 258 258 258 257 255 255 254 254 255 255 255 255 255 256 256 258 259 260 260 260 260 262 261 260 260 261 260 260 259 259 260 259 259 258 258
259 258 259 259 260 260 259 259 258 258 258 257 256 255 254 254 254 254 254 255 256 257 257 257 259 259 260 260 261 262 262 261 260 261 261 262 261 260 260 259 259 258 257
259 258 258 259 259 259 259 259 259 258 258 258 257 256 255 254 255 255 254 255 256 257 258 257 258 259 260 260 260 262 262 262 261 262 262 262 262 261 260 260 259 258 258
260 259 259 259 259 259 259 259 259 259 259 259 258 257 255 254 255 255 254 255 256 256 257 257 258 259 260 260 261 261 261 262 262 261 261 262 262 262 261 259 258 258 258
260 258 258 259 259 259 259 259 259 259 259 259 258 257 256 255 255 255 255 256 256 256 256 257 257 258 260 260 261 261 261 261 262 261 261 262 262 261 260 259 258 258 258
259 257 258 259 259 259 259 259 259 259 259 259 258 258 257 255 255 254 255 256 256 255 256 257 257 258 259 260 262 261 261 261 261 261 261 261 261 260 260 259 259 258 258
261 259 259 260 260 259 259 259 260 259 259 259 259 258 257 255 255 255 255 256 256 255 256 256 257 259 259 260 261 261 261 260 260 260 260 261 260 260 259 260 259 259 257
261 261 261 261 261 261 260 261 261 259 259 259 259 259 258 256 255 254 255 256 255 256 256 257 258 259 259 260 260 260 260 260 259 259 259 260 261 260 260 259 259 259 258
262 262 262 262 262 262 261 260 261 260 260 259 260 260 259 257 256 254 255 255 255 256 257 257 259 259 259 259 259 260 260 260 260 260 259 259 260 260 259 259 259 258 257
263 262 262 263 263 262 262 261 261 261 261 260 260 260 259 257 255 254 254 254 255 255 257 258 260 260 260 259 259 260 260 261 260 259 259 259 259 259 259 259 259 259 258
265 263 263 262 262 262 262 261 261 261 260 260 259 259 259 257 254 254 254 254 255 255 256 258 259 260 260 260 260 260 261 261 261 260 259 259 258 259 259 260 260 260 259
266 264 264 264 263 263 262 261 262 261 260 259 259 258 257 256 255 255 255 255 255 256 256 258 259 259 260 260 260 260 261 261 261 259 258 259 259 260 261 262 262 261 260
Height
5776 5777 5778 5779 5780 5782 5783 5784 5786 5787 5789 5790 5792 5793 5795 5796 5798 5799 5801 5802 5804 5805 5806 5807 5808 5810 5811 5812 5813 5814 5815 5815 5816 5817 5818 5818 5819 5820 5820 5820 5820 5821 5821
5767 5768 5769 5770 5772 5773 5774 5776 5777 5779 5781 5782 5784 5786 5787 5789 5790 5792 5794 5795 5797 5798 5799 5800 5802 5803 5804 5805 5806 5807 5808 5809 5810 5811 5811 5812 5813 5814 5814 5815 5815 5816 5816
5757 5758 5759 5761 5762 5763 5764 5766 5768 5770 5772 5773 5775 5777 5779 5781 5782 5784 5786 5787 5789 5790 5792 5793 5794 5795 5797 5798 5799 5800 5801 5802 5803 5804 5805 5806 5806 5807 5808 5809 5809 5810 5810
5746 5747 5749 5750 5751 5752 5754 5756 5758 5760 5762 5764 5766 5768 5770 5772 5774 5776 5777 5779 5780 5782 5783 5785 5786 5787 5788 5790 5791 5792 5793 5794 5795 5796 5797 5798 5799 5800 5801 5802 5803 5803 5804
5734 5736 5737 5738 5739 5741 5743 5744 5747 5749 5751 5753 5756 5758 5760 5762 5764 5766 5768 5770 5771 5773 5774 5776 5777 5778 5779 5781 5782 5783 5784 5786 5787 5788 5789 5790 5791 5793 5794 5795 5796 5796 5797
5723 5723 5725 5726 5728 5729 5731 5733 5735 5737 5740 5742 5745 5747 5750 5752 5754 5756 5758 5760 5761 5763 5765 5766 5767 5769 5770 5771 5773 5774 5775 5777 5778 5779 5780 5781 5783 5784 5785 5787 5788 5789 5790
5711 5712 5713 5714 5715 5717 5719 5721 5723 5725 5727 5730 5733 5736 5738 5741 5743 5746 5747 5749 5751 5753 5754 5756 5757 5759 5760 5762 5763 5764 5766 5767 5768 5769 5771 5772 5773 5775 5776 5778 5779 5780 5781
5699 5699 5700 5702 5703 5705 5706 5708 5710 5712 5715 5718 5721 5723 5727 5730 5732 5734 5736 5738 5740 5742 5743 5745 5747 5748 5749 5751 5752 5754 5755 5757 5758 5759 5760 5762 5763 5765 5766 5768 5770 5771 5772
5686 5687 5688 5689 5690 5692 5694 5695 5697 5700 5702 5705 5707 5710 5713 5717 5720 5723 5724 5726 5728 5730 5732 5733 5735 5736 5738 5739 5741 5743 5744 5746 5747 5748 5749 5751 5752 5754 5756 5757 5759 5761 5762
5673 5674 5675 5676 5677 5679 5680 5682 5684 5686 5689 5691 5694 5697 5700 5703 5706 5709 5712 5714 5716 5717 5719 5721 5722 5724 5725 5727 5729 5731 5732 5734 5735 5736 5738 5739 5741 5743 5744 5746 5748 5750 5752
5659 5660 5661 5662 5664 5665 5667 5669 5671 5673 5675 5677 5680 5683 5686 5689 5691 5695 5698 5700 5702 5704 5705 5707 5709 5711 5712 5714 5716 5718 5720 5721 5723 5724 5725 5727 5729 5730 5732 5734 5736 5738 5740
5645 5646 5647 5648 5650 5651 5653 5654 5657 5658 5660 5663 5665 5668 5671 5674 5677 5680 5683 5686 5688 5690 5691 5693 5695 5697 5699 5700 5702 5704 5706 5708 5709 5711 5712 5714 5715 5717 5719 5721 5723 5725 5727
5630 5632 5633 5634 5635 5636 5638 5640 5641 5644 5645 5648 5650 5653 5656 5659 5662 5664 5667 5670 5673 5675 5677 5678 5680 5682 5684 5686 5688 5690 5691 5693 5695 5696 5698 5699 5701 5703 5705 5707 5709 5711 5713
5615 5616 5617 5618 5620 5621 5622 5624 5626 5628 5630 5632 5634 5637 5641 5644 5646 5649 5651 5654 5657 5660 5662 5664 5665 5667 5669 5671 5673 5674 5676 5678 5680 5681 5683 5684 5686 5688 5690 5692 5694 5696 5698
5598 5600 5601 5602 5604 5605 5606 5608 5610 5612 5613 5616 5618 5621 5624 5628 5630 5632 5635 5638 5641 5644 5647 5649 5650 5651 5653 5655 5657 5658 5660 5662 5663 5665 5667 5668 5670 5672 5674 5676 5678 5680 5682
5581 5583 5585 5586 5587 5588 5589 5591 5593 5595 5597 5599 5601 5604 5607 5610 5613 5616 5618 5621 5623 5626 5629 5633 5634 5635 5636 5638 5640 5642 5643 5645 5647 5649 5650 5652 5653 5655 5657 5659 5661 5664 5666
5564 5566 5568 5569 5570 5571 5573 5575 5576 5578 5580 5582 5584 5587 5590 5593 5595 5598 5601 5604 5606 5608 5612 5616 5617 5618 5620 5621 5623 5624 5626 5628 5630 5632 5633 5635 5637 5638 5640 5642 5644 5647 5649
5547 5549 5551 5552 5553 5554 5556 5558 5560 5561 5563 5565 5567 5569 5572 5575 5578 5580 5583 5586 5589 5591 5594 5597 5599 5601 5603 5604 5605 5607 5609 5611 5613 5615 5616 5618 5620 5621 5622 5624 5627 5629 5632
5531 5532 5534 5535 5536 5537 5539 5540 5542 5544 5546 5548 5550 5552 5554 5557 5560 5563 5565 5568 5571 5573 5576 5579 5582 5584 5585 5587 5588 5589 5591 5593 5595 5597 5599 5600 5602 5603 5605 5607 5609 5612 5615
5515 5516 5517 5518 5519 5521 5522 5523 5525 5527 5528 5530 5532 5534 5537 5539 5542 5545 5547 5550 5553 5555 5558 5561 5564 5566 5568 5569 5570 5572 5573 5575 5577 5579 5581 5583 5584 5586 5588 5590 5592 5595 5597
5500 5500 5501 5502 5503 5504 5505 5506 5508 5510 5511 5513 5515 5517 5519 5522 5524 5527 5530 5533 5535 5538 5540 5543 5546 5549 5551 5552 5553 5555 5556 5557 5559 5561 5563 5566 5568 5570 5570 5572 5574 5576 5579
5485 5485 5486 5486 5487 5488 5489 5490 5491 5493 5495 5496 5498 5500 5502 5504 5506 5509 5512 5515 5517 5520 5523 5526 5529 5531 5534 5535 5536 5537 5538 5540 5543 5546 5546 5548 5549 5551 5553 5555 5557 5559 5561
5470 5470 5470 5471 5471 5472 5473 5474 5475 5476 5478 5480 5482 5483 5485 5487 5489 5492 5495 5498 5500 5503 5506 5509 5511 5514 5516 5519 5520 5521 5521 5522 5525 5527 5528 5531 5532 5534 5536 5538 5540 5542 5544
5455 5455 5455 5456 5457 5457 5458 5459 5460 5461 5462 5464 5466 5467 5469 5471 5473 5476 5479 5481 5484 5487 5490 5492 5496 5498 5499 5500 5501 5502 5503 5505 5507 5509 5510 5513 5515 5517 5520 5522 5524 5525 5527
5441 5441 5441 5442 5442 5443 5444 5444 5445 5446 5447 5449 5450 5452 5454 5456 5458 5460 5463 5466 5469 5471 5473 5476 5478 5480 5481 5483 5483 5484 5486 5487 5490 5492 5493 5495 5498 5500 5503 5505 5507 5508 5510
5428 5428 5428 5428 5429 5429 5430 5430 5430 5431 5433 5435 5436 5437 5439 5441 5443 5445 5447 5450 5453 5456 5459 5461 5462 5463 5464 5466 5466 5468 5469 5471 5473 5476 5477 5479 5481 5483 5486 5489 5490 5491 5493